FW6622 Weather Reports


Display with metric or nautical units.
time (UTC)temp
F
wind
direction
speed
MPH
gust
MPH
rain 1hr
in
rain 24hr
in
rain mn
in
humidity
%
barometer
mb
20260906194605 101 88 3.0 7.0 0.00 0.00 0.00 36 1018.4
20260906193055 101 46 4.0 6.0 0.00 0.00 0.00 37 1018.6
20260906191606 101 11 2.0 6.0 0.00 0.00 0.00 34 1018.7
20260906190050 101 334 1.0 6.0 0.00 0.00 0.00 33 1019.0
20260906184601 99 28 1.0 3.0 0.00 0.00 0.00 37 1019.3
20260906183100 98 107 4.0 9.0 0.00 0.00 0.00 37 1019.4
20260906181621 97 20 2.0 5.0 0.00 0.00 0.00 38 1019.7
20260906180106 100 13 1.0 8.0 0.00 0.00 0.00 40 1020.1
20260906174555 98 299 1.0 9.0 0.00 0.00 0.00 39 1020.5
20260906173053 99 337 1.0 8.0 0.00 0.00 0.00 37 1020.8
20260906171552 97 56 2.0 9.0 0.00 0.00 0.00 39 1020.9
20260906164557 97 234 1.0 4.0 0.00 0.00 0.00 44 1021.4
20260906163101 95 207 1.0 7.0 0.00 0.00 0.00 41 1021.4
20260906161556 95 5 1.0 4.0 0.00 0.00 0.00 43 1021.4
20260906160100 95 117 1.0 6.0 0.00 0.00 0.00 44 1021.3
20260906154554 94 92 1.0 4.0 0.00 0.00 0.00 44 1021.4
20260906153053 93 63 1.0 5.0 0.00 0.00 0.00 44 1021.4
20260906151550 92 0 2.0 5.0 0.00 0.00 0.00 49 1021.3
20260906150059 91 233 1.0 3.0 0.00 0.00 0.00 50 1021.3
20260906144554 89 0 0.0 2.0 0.00 0.00 0.00 54 1021.3
20260906143055 87 0 0.0 2.0 0.00 0.00 0.00 53 1021.4
20260906141550 86 255 1.0 4.0 0.00 0.00 0.00 56 1021.2
20260906140106 84 255 2.0 4.0 0.00 0.00 0.00 59 1021.3
20260906134604 82 258 1.0 4.0 0.00 0.00 0.00 62 1021.1
20260906133101 80 250 2.0 4.0 0.00 0.00 0.00 66 1021.0
20260906131551 77 0 0.0 3.0 0.00 0.00 0.00 76 1020.7
20260906130108 76 290 1.0 3.0 0.00 0.00 0.00 77 1020.6
20260906124602 74 0 0.0 0.0 0.00 0.00 0.00 80 1020.3
20260906123058 73 0 0.0 0.0 0.00 0.00 0.00 79 1020.1
20260906121606 72 0 0.0 0.0 0.00 0.00 0.00 80 1019.8
20260906120055 72 0 0.0 0.0 0.00 0.00 0.00 81 1019.7
20260906114614 72 0 0.0 0.0 0.00 0.00 0.00 80 1019.6
20260906113110 72 0 0.0 0.0 0.00 0.00 0.00 81 1019.5
20260906111605 72 0 0.0 0.0 0.00 0.00 0.00 81 1019.3
20260906110106 72 0 0.0 0.0 0.00 0.00 0.00 82 1019.2
20260906104601 73 0 0.0 0.0 0.00 0.00 0.00 79 1019.1
20260906103055 72 0 0.0 1.0 0.00 0.00 0.00 79 1019.2
20260906101554 72 15 0.0 1.0 0.00 0.00 0.00 79 1019.2
20260906100051 73 0 0.0 0.0 0.00 0.00 0.00 80 1019.1
20260906094558 73 0 0.0 0.0 0.00 0.00 0.00 80 1019.3
20260906093056 74 0 0.0 0.0 0.00 0.00 0.00 77 1019.3
20260906091553 74 0 0.0 0.0 0.00 0.00 0.00 80 1019.2
20260906090048 73 0 0.0 0.0 0.00 0.00 0.00 79 1019.1
20260906084554 74 0 0.0 0.0 0.00 0.00 0.00 77 1019.1
20260906083055 75 0 0.0 0.0 0.00 0.00 0.00 75 1019.1
20260906081556 75 0 0.0 1.0 0.00 0.00 0.00 76 1018.9
20260906080051 76 0 0.0 0.0 0.00 0.00 0.00 74 1018.8
20260906074548 75 0 0.0 1.0 0.00 0.00 0.00 77 1018.8
20260906073055 75 15 0.0 1.0 0.00 0.00 0.00 75 1018.7
20260906071554 75 0 0.0 1.0 0.00 0.00 0.00 73 1018.8
20260906070052 75 0 0.0 2.0 0.00 0.00 0.00 74 1018.8
20260906064557 76 15 1.0 2.0 0.00 0.00 0.00 71 1018.9
20260906063055 74 0 0.0 0.0 0.00 0.00 0.00 74 1019.0
20260906061555 75 0 0.0 0.0 0.00 0.00 0.00 72 1018.9
20260906060125 76 0 0.0 0.0 0.00 0.00 0.00 71 1019.0
20260906054604 76 0 0.0 2.0 0.00 0.00 0.00 72 1019.1
20260906053054 77 15 0.0 1.0 0.00 0.00 0.00 70 1019.1
20260906051553 77 15 1.0 2.0 0.00 0.00 0.00 68 1019.2
20260906050115 77 0 0.0 0.0 0.00 0.00 0.00 69 1019.0
20260906044555 79 0 0.0 1.0 0.00 0.00 0.00 68 1018.9
20260906043054 77 0 0.0 0.0 0.00 0.00 0.00 69 1018.9
20260906041552 78 0 0.0 0.0 0.00 0.00 0.00 68 1018.9
20260906040050 79 0 0.0 0.0 0.00 0.00 0.00 67 1019.0
20260906034559 80 0 0.0 0.0 0.00 0.00 0.00 65 1018.8
20260906033053 80 0 0.0 1.0 0.00 0.00 0.00 66 1018.6
20260906031625 80 0 0.0 0.0 0.00 0.00 0.00 65 1018.6
20260906030059 81 0 0.0 0.0 0.00 0.00 0.00 65 1018.4
20260906024600 82 0 0.0 0.0 0.00 0.00 0.00 61 1018.4
20260906023107 83 0 0.0 2.0 0.00 0.00 0.00 61 1018.3
20260906021551 84 0 0.0 1.0 0.00 0.00 0.00 56 1018.0
20260906014554 85 0 0.0 0.0 0.00 0.00 0.00 56 1017.7
20260906013053 87 0 0.0 2.0 0.00 0.00 0.00 51 1017.3
20260906011558 89 0 0.0 3.0 0.00 0.00 0.00 48 1017.0
20260906010054 90 0 0.0 1.0 0.00 0.00 0.00 46 1017.2
20260906004602 91 0 0.0 1.0 0.00 0.00 0.00 44 1017.3
20260906003054 93 0 0.0 2.0 0.00 0.00 0.00 42 1017.3
20260906001553 95 326 0.0 5.0 0.00 0.00 0.00 40 1017.3
20260906000101 96 0 1.0 4.0 0.00 0.00 0.00 38 1017.3
20260905234558 97 298 1.0 6.0 0.00 0.00 0.00 38 1017.2
20260905233101 98 329 2.0 8.0 0.00 0.00 0.00 37 1017.2
20260905231610 99 28 1.0 7.0 0.00 0.00 0.00 37 1017.0
20260905230108 100 346 2.0 5.0 0.00 0.00 0.00 35 1017.0
20260905224556 100 344 2.0 7.0 0.00 0.00 0.00 35 1017.0
20260905223056 101 307 2.0 8.0 0.00 0.00 0.00 35 1016.8
20260905221628 101 355 2.0 8.0 0.00 0.00 0.00 36 1016.9
20260905220104 100 5 1.0 8.0 0.00 0.00 0.00 35 1016.9
20260905214606 100 249 3.0 9.0 0.00 0.00 0.00 35 1016.8
20260905213054 101 326 2.0 8.0 0.00 0.00 0.00 34 1017.2
20260905211603 101 360 4.0 15.0 0.00 0.00 0.00 36 1017.4
20260905210107 101 342 2.0 6.0 0.00 0.00 0.00 34 1017.8
20260905204607 101 35 2.0 6.0 0.00 0.00 0.00 35 1018.0
20260905203100 101 28 2.0 5.0 0.00 0.00 0.00 39 1018.1
20260905201554 101 289 2.0 8.0 0.00 0.00 0.00 34 1018.3